Temperature
7 7 7 7 8 8 8 8 8 8 8 8 8 8 8 8 8 8 8 7 7 7 7 7 7 7 7 7 7 7 6 6 6 6 6 6 5 5 5 5 5 5 5
7 7 7 7 7 7 7 7 7 7 7 8 7 7 7 7 7 7 7 7 7 7 7 6 6 6 6 6 6 6 6 6 5 5 5 5 5 5 5 5 5 4 4
6 6 6 6 6 6 6 6 6 7 7 7 7 7 7 7 7 7 7 7 6 6 6 6 6 6 6 6 6 6 5 5 5 5 5 5 5 4 4 4 4 4 4
5 6 6 6 6 6 6 6 6 6 6 6 6 6 7 6 6 6 6 6 6 6 6 6 6 6 5 5 5 5 5 5 5 4 4 4 4 4 4 4 4 4 3
5 5 5 5 5 5 5 5 5 5 6 6 6 6 6 6 6 6 6 6 6 5 5 5 5 5 5 5 5 5 4 4 4 4 4 4 3 3 3 3 3 3 3
4 4 4 4 4 4 5 5 5 5 5 5 5 5 5 5 5 5 5 5 5 5 5 5 4 4 4 4 4 4 4 4 4 3 3 3 3 3 3 2 2 2 2
4 4 4 4 4 4 4 4 4 4 4 4 5 5 5 5 5 4 4 4 4 4 4 4 4 4 4 4 4 3 3 3 3 3 3 3 3 2 2 2 2 1 1
3 3 3 3 3 3 3 3 4 4 4 4 4 4 4 4 4 4 4 4 4 4 4 4 4 3 3 3 3 3 3 3 3 3 3 2 2 2 2 1 1 1 1
2 2 2 2 3 3 3 3 3 3 3 3 3 3 3 3 3 3 3 3 3 3 3 3 3 3 3 3 3 3 2 2 2 2 2 2 2 1 1 1 0 0 0
2 2 2 2 2 2 2 2 2 2 2 2 2 2 3 3 3 3 3 3 3 3 3 3 3 2 2 2 2 2 2 2 2 2 2 1 1 1 1 0 -0 -0 -1
1 1 2 1 1 1 1 1 1 1 1 1 1 2 2 2 2 2 2 3 3 2 2 2 2 2 2 2 2 2 2 1 1 1 1 1 1 0 0 -0 -1 -1 -1
1 1 1 1 1 1 1 1 1 1 1 1 1 1 1 1 2 2 2 2 2 2 2 2 1 1 1 1 1 1 1 1 0 0 0 0 0 -0 -0 -1 -1 -1 -1
0 0 0 0 0 0 0 0 0 0 0 0 0 0 1 1 1 1 1 1 1 1 1 1 1 1 1 1 1 0 0 -0 -0 -0 -1 -1 -1 -1 -1 -1 -1 -2 -2
-0 -1 -1 -1 -0 -0 -0 -0 -0 -0 -0 -0 -0 -0 -0 0 0 0 0 0 0 0 0 0 0 0 0 0 -0 -0 -0 -1 -1 -1 -1 -1 -2 -2 -2 -2 -2 -2 -2
-1 -1 -1 -1 -1 -1 -1 -1 -1 -1 -1 -1 -1 -0 -0 -0 -0 -0 -0 -0 -0 -0 -0 -0 -0 -0 -0 -1 -1 -1 -1 -1 -2 -2 -2 -2 -2 -2 -2 -3 -3 -3 -3
-2 -2 -2 -2 -2 -2 -2 -2 -2 -2 -2 -1 -1 -1 -1 -1 -1 -1 -1 -1 -1 -1 -1 -1 -1 -1 -1 -1 -1 -2 -2 -2 -2 -3 -3 -3 -3 -3 -3 -3 -3 -4 -4
-3 -3 -3 -3 -3 -3 -3 -3 -3 -2 -2 -2 -2 -2 -2 -2 -2 -1 -1 -1 -1 -1 -2 -2 -2 -2 -2 -2 -2 -3 -3 -3 -3 -3 -3 -3 -3 -4 -4 -4 -4 -4 -4
-3 -4 -4 -4 -4 -4 -3 -3 -3 -3 -3 -3 -3 -3 -2 -2 -2 -2 -2 -2 -2 -2 -2 -3 -3 -3 -3 -3 -3 -3 -4 -4 -4 -4 -4 -4 -4 -4 -4 -4 -4 -5 -5
-4 -4 -4 -4 -4 -4 -4 -4 -4 -4 -4 -4 -4 -3 -3 -3 -3 -3 -3 -3 -3 -3 -4 -4 -4 -4 -4 -4 -4 -4 -4 -4 -4 -4 -5 -5 -5 -5 -5 -5 -5 -5 -6
-5 -5 -5 -5 -5 -5 -4 -4 -4 -4 -4 -4 -4 -4 -4 -4 -4 -4 -4 -4 -4 -4 -4 -4 -4 -5 -5 -5 -5 -5 -5 -5 -5 -5 -5 -5 -5 -5 -6 -6 -6 -6 -6
-6 -5 -5 -5 -5 -5 -5 -5 -5 -5 -5 -5 -5 -5 -5 -5 -5 -5 -5 -5 -5 -5 -5 -5 -5 -5 -5 -5 -5 -5 -5 -5 -5 -5 -6 -6 -6 -6 -6 -6 -6 -6 -7
-6 -6 -6 -6 -6 -6 -6 -5 -5 -5 -5 -5 -5 -5 -6 -6 -6 -6 -6 -5 -5 -6 -6 -6 -6 -6 -6 -6 -6 -6 -6 -6 -6 -6 -6 -6 -6 -6 -6 -6 -7 -7 -7
-7 -6 -6 -6 -6 -6 -6 -6 -6 -6 -6 -6 -6 -6 -6 -6 -6 -6 -6 -6 -6 -6 -6 -6 -6 -6 -6 -6 -6 -6 -6 -6 -6 -6 -6 -6 -6 -6 -7 -7 -7 -7 -7
-7 -7 -7 -7 -7 -7 -7 -7 -6 -6 -7 -7 -7 -7 -7 -6 -6 -6 -6 -6 -6 -6 -6 -6 -6 -6 -6 -6 -7 -7 -7 -7 -6 -6 -7 -7 -7 -7 -7 -7 -7 -7 -8
-8 -7 -7 -7 -7 -7 -7 -7 -7 -7 -7 -7 -7 -7 -7 -7 -7 -7 -7 -7 -7 -7 -7 -7 -7 -7 -7 -7 -7 -7 -7 -7 -7 -7 -7 -7 -7 -7 -7 -7 -8 -8 -8
-8 -8 -8 -8 -8 -8 -8 -8 -8 -8 -8 -8 -8 -7 -7 -7 -7 -7 -7 -7 -7 -7 -7 -7 -7 -7 -7 -7 -7 -7 -7 -7 -7 -7 -7 -7 -7 -7 -8 -8 -8 -8 -8
Wind_Speed
5 5 5 5 5 5 5 5 5 5 6 6 6 6 6 6 6 6 6 6 7 5 5 5 5 4 4 3 3 3 2 3 3 2 1 1 1 1 1 2 3 4 5
4 5 5 5 5 5 5 5 5 5 5 6 6 6 6 6 6 6 6 6 6 6 6 6 6 5 5 4 3 3 3 3 3 3 1 1 2 2 2 2 3 4 5
4 4 5 5 5 5 5 5 5 5 5 5 6 6 6 6 6 6 6 5 5 6 6 6 6 6 5 4 4 4 3 2 2 3 2 1 1 1 1 2 2 3 5
4 4 4 4 5 4 5 5 5 5 5 5 5 5 5 6 6 6 6 5 5 4 4 5 5 6 6 5 4 4 3 3 3 3 2 1 1 1 1 2 2 2 3
4 4 3 4 4 4 4 5 5 5 5 4 5 4 4 4 5 6 5 5 5 4 4 4 4 5 6 5 4 5 5 4 3 3 3 2 2 2 2 2 3 3 3
4 3 3 4 4 4 4 4 4 4 4 4 4 5 4 4 6 7 6 5 5 5 4 4 4 5 5 6 6 6 6 6 5 4 4 4 4 3 2 2 2 2 3
3 3 3 4 4 4 4 4 4 4 4 4 4 4 4 4 7 7 7 5 5 4 4 4 3 3 4 4 4 5 6 8 8 6 6 6 5 4 3 3 3 3 4
3 3 3 4 4 4 4 4 3 3 3 3 3 3 4 4 6 7 7 5 4 4 4 5 4 4 4 4 3 3 4 4 5 5 5 5 4 3 4 4 3 3 3
3 3 3 3 4 4 3 3 3 3 3 3 3 3 3 3 5 6 6 4 4 4 3 4 5 5 5 5 4 3 3 2 3 4 5 5 5 5 4 1 1 2 4
2 2 2 3 3 4 3 3 2 3 3 3 3 3 3 3 4 5 5 3 3 3 2 3 4 5 6 6 5 4 4 3 2 1 1 2 2 4 4 3 3 3 3
2 3 3 3 3 3 3 3 3 3 3 3 3 2 2 3 4 5 5 3 3 3 3 2 3 5 6 5 4 4 5 3 2 2 1 1 0 0 1 2 2 3 3
3 4 3 3 3 3 3 3 3 3 3 3 3 2 2 2 3 3 3 3 3 3 3 3 3 4 4 4 3 3 3 2 2 1 1 1 1 1 1 2 3 3 4
4 4 3 3 3 3 3 3 3 2 3 3 3 2 1 1 2 3 2 2 2 2 2 2 3 3 3 3 3 3 2 2 2 2 2 2 2 2 1 1 1 3 4
4 3 3 3 3 3 3 2 2 2 2 2 2 2 2 1 1 1 1 1 1 1 1 1 2 2 1 1 1 1 1 1 2 2 2 1 1 1 1 1 2 2 3
4 3 3 3 3 3 3 3 2 1 1 2 2 2 2 1 1 1 1 1 1 2 2 1 1 1 1 1 1 1 1 1 0 1 1 1 2 2 2 1 2 2 3
4 3 3 3 3 3 3 4 6 4 4 3 2 1 1 0 0 0 1 0 1 3 2 2 1 2 2 2 1 1 1 1 1 1 1 2 2 2 2 2 2 3 4
4 3 3 3 3 3 2 3 3 4 6 5 3 2 2 2 1 2 2 2 2 3 2 1 1 1 2 1 1 1 1 1 1 1 2 2 2 2 3 3 3 3 4
5 4 3 2 2 2 2 2 2 2 2 2 4 4 3 3 3 3 3 3 2 2 1 1 1 1 1 1 1 1 1 1 1 2 2 2 2 3 3 4 4 4 5
4 3 3 2 2 2 2 2 2 2 2 2 2 3 4 4 4 4 3 2 1 1 1 0 0 0 0 1 1 1 1 2 2 2 2 3 3 3 4 4 4 6 5
4 5 4 3 3 2 2 2 2 1 1 1 2 2 2 2 2 2 2 2 1 1 0 0 1 0 1 1 1 1 2 2 2 3 3 3 3 4 4 5 5 5 5
3 4 5 4 3 3 2 2 1 1 1 1 1 1 2 1 1 1 1 1 1 1 1 1 1 1 1 1 1 2 3 3 3 3 4 4 4 4 4 4 5 5 5
3 3 3 3 3 3 2 2 2 1 1 1 1 2 2 2 1 1 1 2 2 2 1 1 1 2 2 2 2 3 3 4 4 4 4 4 4 4 4 4 5 5 5
3 3 3 3 3 3 3 2 2 2 1 1 1 2 2 2 1 1 2 2 2 2 2 2 2 2 3 3 4 4 4 4 5 5 4 5 5 5 5 5 6 6 6
3 3 3 3 3 2 2 2 2 2 1 1 1 1 1 2 2 2 2 2 2 2 3 3 3 4 4 5 6 6 7 8 8 7 7 5 5 5 5 5 6 7 7
3 2 2 2 2 2 2 2 2 2 2 2 2 2 2 2 2 2 2 3 3 3 4 4 4 5 5 6 7 7 8 9 9 8 7 6 6 6 6 6 6 6 6
2 2 2 2 2 2 2 2 2 2 2 2 2 2 2 2 3 3 3 3 3 4 4 5 6 6 7 8 8 8 9 9 9 9 7 6 5 5 5 6 6 6 7
Wind_Direction
149 146 146 149 149 144 146 149 148 142 143 148 150 149 151 152 150 152 154 158 160 160 161 165 170 163 163 169 170 172 173 164 199 235 218 166 162 187 262 276 290 283 282
135 140 144 144 143 145 145 144 142 143 145 148 148 150 154 154 153 156 161 162 163 167 170 171 174 168 171 175 176 180 181 179 184 206 217 202 221 212 219 245 267 276 284
124 133 140 141 140 143 142 141 143 144 141 143 146 152 157 156 157 162 163 164 168 171 171 173 178 172 179 179 182 187 185 178 171 187 213 214 239 210 229 257 259 271 283
108 120 131 137 134 136 135 136 140 141 143 146 148 151 152 155 159 163 162 162 165 167 170 175 178 180 183 179 183 182 173 167 163 174 188 206 241 246 216 250 280 279 287
101 111 118 125 124 122 124 128 131 134 139 142 142 142 144 153 163 164 165 164 163 162 165 171 178 182 187 188 189 179 173 175 178 185 195 222 231 227 232 238 269 292 292
104 112 112 116 116 118 120 123 127 129 132 137 149 150 153 163 160 161 162 161 162 165 171 174 180 182 187 192 195 194 191 191 194 203 220 222 234 235 234 243 265 300 290
101 107 113 120 121 120 117 120 128 132 132 140 149 151 156 158 159 162 166 163 167 177 179 179 185 184 180 185 194 202 213 218 215 209 214 225 226 223 218 239 245 262 268
97 100 110 118 123 123 125 132 134 130 138 144 149 153 152 162 168 169 167 169 174 183 187 186 183 181 181 175 181 198 218 228 229 220 217 224 225 212 211 228 242 265 286
104 105 111 124 125 123 125 133 131 133 134 136 148 155 158 165 171 173 168 169 175 184 187 187 187 188 190 178 180 203 221 242 252 239 239 239 242 239 231 185 212 285 295
97 104 103 113 121 125 129 124 118 129 139 140 143 152 157 163 170 173 172 170 172 179 185 195 197 195 193 188 189 197 213 221 194 178 246 261 249 238 235 213 210 244 285
78 90 90 96 103 112 110 106 112 114 120 125 127 129 141 153 167 174 175 171 177 179 191 199 198 195 199 197 200 205 221 211 187 182 198 230 254 249 264 252 242 234 257
69 75 73 82 85 98 107 100 107 120 126 128 124 113 112 133 149 166 172 185 183 186 198 198 196 195 199 200 206 210 209 182 165 176 200 235 251 265 268 280 277 273 271
70 72 70 75 79 88 104 113 117 124 136 138 136 138 127 108 131 139 152 177 190 185 185 182 181 185 191 200 200 185 169 172 177 197 218 240 250 243 250 299 315 304 302
75 73 77 77 74 69 73 89 109 128 139 141 142 144 134 117 102 109 136 154 159 152 139 133 131 135 140 159 167 167 164 186 198 219 235 254 252 248 261 261 278 292 300
73 74 73 76 83 79 69 61 70 60 134 148 149 149 149 162 215 203 158 170 173 171 141 115 108 126 141 139 133 152 150 152 211 240 238 262 268 271 276 278 266 276 275
73 67 73 80 83 87 81 61 52 58 62 61 75 107 104 139 141 67 50 123 160 153 136 150 167 172 184 191 195 205 208 206 223 239 241 250 256 258 267 276 272 269 274
60 59 66 75 84 90 94 92 70 48 54 60 62 65 90 98 82 57 66 83 127 132 125 156 183 192 197 201 210 227 249 254 242 235 251 254 261 270 273 272 270 274 280
50 48 51 66 72 76 82 89 98 95 59 38 39 50 60 69 65 62 73 74 69 61 102 162 192 195 196 203 219 237 254 269 269 264 262 261 260 266 273 276 272 273 281
45 49 50 54 61 68 68 71 73 71 73 59 39 33 39 51 56 56 52 59 84 58 58 60 212 221 215 217 235 248 252 257 262 263 263 262 260 261 264 268 274 280 283
42 40 38 49 54 53 56 63 63 62 64 61 45 24 28 42 48 36 30 34 33 1 347 315 314 302 272 254 259 262 267 268 266 261 262 261 261 260 261 265 268 274 275
35 34 31 39 45 43 43 50 51 53 53 44 24 9 26 44 34 15 4 1 346 332 327 315 302 289 279 272 267 265 265 265 262 262 264 263 262 265 264 263 265 267 273
34 36 34 36 36 32 27 27 37 41 38 31 10 3 11 15 11 1 349 341 332 319 308 295 286 283 276 268 259 258 263 265 265 266 266 266 266 266 266 264 265 268 270
36 34 30 31 32 26 21 24 24 22 16 6 359 1 6 4 352 341 333 330 327 320 316 305 292 290 285 277 270 260 257 259 260 259 260 263 262 264 265 264 264 268 269
32 29 27 24 22 20 18 12 6 3 1 352 352 352 342 334 328 325 323 321 320 318 315 307 296 290 287 287 283 276 270 269 267 260 254 253 261 266 266 266 266 266 268
20 17 16 16 12 7 5 0 357 355 348 337 333 330 325 320 314 310 312 313 309 305 304 300 295 292 290 289 289 285 281 280 279 274 263 253 253 257 260 263 267 270 271
9 4 2 7 6 358 353 347 346 343 333 326 323 319 314 309 306 305 306 304 304 302 300 297 294 293 295 295 293 291 290 289 287 284 273 256 253 259 263 268 269 270 272
Height
1454 1457 1460 1462 1465 1468 1471 1474 1477 1480 1483 1485 1488 1490 1493 1495 1498 1500 1503 1506 1508 1510 1513 1515 1517 1520 1521 1524 1525 1526 1528 1529 1530 1530 1532 1533 1533 1534 1534 1534 1534 1534 1533
1452 1455 1457 1460 1463 1466 1469 1472 1474 1477 1480 1483 1485 1487 1490 1492 1495 1497 1500 1502 1504 1506 1509 1511 1513 1516 1518 1519 1521 1522 1523 1525 1526 1526 1527 1528 1529 1529 1530 1530 1530 1530 1529
1450 1453 1455 1458 1461 1463 1466 1469 1472 1475 1477 1480 1482 1484 1487 1489 1492 1494 1497 1499 1501 1503 1505 1507 1509 1511 1513 1515 1516 1518 1519 1520 1522 1522 1523 1524 1524 1525 1525 1526 1526 1526 1525
1449 1451 1453 1456 1458 1461 1464 1467 1469 1472 1475 1477 1479 1482 1484 1487 1489 1492 1494 1496 1498 1500 1502 1504 1506 1508 1509 1511 1512 1514 1515 1516 1518 1518 1519 1519 1520 1521 1521 1521 1520 1521 1520
1447 1450 1452 1454 1457 1460 1462 1465 1467 1470 1472 1474 1477 1479 1481 1484 1486 1488 1490 1492 1494 1496 1499 1501 1502 1504 1506 1507 1509 1510 1511 1512 1513 1514 1515 1515 1516 1516 1516 1516 1516 1515 1515
1446 1448 1450 1453 1455 1457 1460 1462 1464 1467 1469 1472 1474 1476 1478 1480 1482 1485 1487 1489 1491 1493 1495 1497 1499 1500 1502 1503 1505 1506 1507 1508 1509 1510 1510 1510 1511 1512 1512 1512 1512 1511 1509
1445 1447 1449 1451 1453 1455 1458 1460 1462 1464 1466 1469 1471 1473 1475 1477 1479 1482 1484 1486 1487 1489 1491 1493 1495 1497 1498 1500 1501 1502 1503 1504 1505 1506 1506 1506 1507 1507 1508 1507 1507 1507 1506
1444 1446 1448 1449 1451 1453 1455 1457 1460 1462 1464 1466 1468 1470 1472 1474 1477 1479 1481 1483 1484 1486 1488 1490 1491 1493 1495 1496 1497 1498 1499 1500 1501 1501 1502 1503 1503 1504 1504 1504 1503 1502 1501
1444 1445 1446 1448 1450 1452 1453 1455 1458 1459 1461 1463 1465 1467 1469 1471 1474 1476 1478 1479 1481 1483 1485 1486 1488 1489 1491 1492 1493 1493 1494 1495 1496 1497 1498 1498 1499 1499 1499 1499 1498 1497 1495
1443 1444 1446 1447 1449 1450 1452 1454 1456 1458 1459 1461 1463 1465 1467 1469 1471 1473 1475 1476 1477 1479 1481 1483 1484 1485 1487 1488 1488 1489 1489 1490 1491 1492 1492 1493 1493 1494 1494 1494 1494 1493 1491
1442 1443 1444 1446 1447 1449 1451 1453 1455 1456 1458 1460 1462 1463 1465 1467 1469 1470 1472 1473 1474 1476 1477 1479 1480 1481 1483 1484 1484 1485 1485 1486 1486 1487 1487 1487 1488 1489 1489 1489 1489 1489 1487
1441 1442 1443 1445 1446 1448 1450 1451 1453 1455 1456 1458 1460 1461 1463 1465 1466 1467 1469 1470 1472 1473 1474 1475 1476 1477 1479 1479 1480 1480 1481 1482 1482 1482 1482 1482 1483 1483 1484 1483 1483 1483 1482
1440 1441 1442 1444 1445 1447 1449 1450 1452 1453 1455 1456 1458 1459 1460 1462 1463 1465 1466 1467 1468 1469 1470 1471 1472 1474 1475 1475 1476 1476 1477 1477 1477 1477 1477 1477 1478 1478 1478 1478 1477 1477 1477
1439 1441 1442 1443 1444 1446 1447 1449 1450 1451 1453 1454 1455 1456 1458 1459 1460 1461 1463 1464 1464 1465 1466 1467 1468 1469 1470 1471 1472 1472 1472 1473 1473 1473 1472 1473 1473 1473 1473 1472 1472 1471 1470
1439 1440 1441 1442 1443 1444 1446 1447 1449 1450 1451 1452 1453 1454 1455 1456 1458 1459 1460 1460 1461 1462 1463 1463 1464 1465 1466 1467 1468 1468 1468 1469 1469 1469 1468 1468 1468 1468 1468 1468 1467 1466 1465
1438 1439 1440 1441 1442 1443 1444 1446 1447 1449 1450 1451 1452 1453 1454 1455 1456 1456 1457 1457 1457 1458 1459 1459 1460 1461 1462 1463 1463 1464 1464 1464 1464 1464 1464 1464 1464 1463 1463 1463 1463 1462 1460
1438 1439 1440 1441 1442 1442 1443 1444 1445 1447 1448 1450 1451 1451 1452 1453 1454 1454 1454 1454 1455 1455 1456 1456 1457 1458 1458 1459 1460 1460 1460 1460 1460 1460 1460 1460 1460 1459 1459 1458 1458 1457 1455
1438 1439 1439 1440 1441 1442 1443 1444 1444 1445 1446 1447 1448 1449 1450 1451 1451 1452 1452 1452 1452 1452 1453 1453 1454 1454 1455 1455 1456 1456 1456 1456 1457 1457 1456 1456 1456 1455 1455 1454 1453 1452 1451
1438 1438 1439 1440 1440 1441 1442 1443 1444 1444 1444 1445 1446 1447 1448 1448 1449 1449 1450 1450 1449 1450 1450 1450 1451 1451 1452 1452 1452 1453 1453 1453 1453 1453 1452 1452 1452 1451 1450 1450 1449 1448 1447
1438 1439 1439 1440 1440 1441 1442 1442 1443 1443 1444 1444 1445 1446 1446 1447 1447 1447 1447 1448 1448 1448 1448 1448 1448 1448 1449 1449 1449 1449 1449 1449 1449 1449 1449 1448 1448 1447 1446 1445 1444 1443 1442
1439 1439 1439 1440 1440 1440 1441 1441 1442 1442 1443 1443 1444 1445 1445 1445 1445 1445 1445 1445 1445 1445 1445 1445 1446 1446 1446 1446 1446 1446 1446 1445 1445 1445 1445 1444 1444 1443 1442 1441 1440 1439 1437
1439 1439 1439 1440 1440 1440 1440 1441 1441 1441 1442 1442 1442 1443 1444 1444 1443 1443 1443 1443 1444 1443 1443 1443 1443 1443 1443 1443 1443 1442 1442 1441 1441 1441 1441 1440 1439 1438 1437 1436 1435 1434 1432
1440 1439 1439 1439 1439 1440 1440 1440 1440 1440 1440 1441 1441 1441 1441 1441 1441 1441 1441 1441 1441 1441 1441 1441 1440 1440 1440 1440 1439 1439 1438 1438 1437 1437 1436 1435 1434 1433 1432 1431 1430 1429 1427
1440 1440 1439 1439 1439 1439 1439 1438 1439 1439 1439 1439 1439 1439 1439 1439 1439 1439 1439 1439 1438 1438 1438 1438 1437 1437 1437 1436 1436 1435 1435 1434 1433 1432 1431 1430 1429 1428 1427 1426 1425 1424 1422
1440 1439 1439 1439 1438 1438 1438 1437 1437 1437 1437 1437 1437 1437 1437 1437 1437 1437 1436 1436 1436 1435 1435 1434 1434 1433 1433 1432 1431 1431 1430 1429 1428 1428 1427 1426 1424 1423 1422 1421 1420 1419 1417
1439 1439 1438 1438 1437 1437 1437 1436 1436 1436 1436 1436 1435 1435 1435 1435 1434 1434 1434 1433 1432 1432 1431 1431 1430 1430 1429 1428 1427 1426 1425 1425 1424 1423 1422 1421 1420 1419 1418 1416 1415 1414 1412